Sexton Summit, OR

1:24 AM PDT on May 23, 2017 (GMT -0700)
Sexton Summit

Weather History for KSXT - March, 2014

Change the Weather History Date:

Monday, March 10, 2014

  Actual Average Record
Temperature  
Mean Temperature 36 °F -  
Max Temperature 42 °F 42 °F 66 °F (2005)
Min Temperature 30 °F 31 °F 24 °F (2006)
Degree Days  
Heating Degree Days 30    
Moisture  
Dew Point 35 °F    
Average Humidity 97    
Maximum Humidity 100    
Minimum Humidity 79    
Precipitation  
Precipitation 0.23 in - - ()
Sea Level Pressure  
Sea Level Pressure 30.20 in    
Wind  
Wind Speed 6 mph (West)    
Max Wind Speed 13 mph    
Max Gust Speed 22 mph    
Visibility 3 miles    
Events Fog , Rain , Snow    
Averages and records for this station are not official NWS values.
T = Trace of Precipitation, MM = Missing Value Source: NWS Daily Summary

Daily Weather History Graph

Daily Weather History Graph

Search for Another Location

Airport or City:

Trip Planner

Search our weather history database for the weather conditions in past years. The results will help you decide how hot, cold, wet, or windy it might be!

Date:

Astronomy

Mar. 10, 2014 Rise Set
Actual Time 7:33 AM PDT 7:14 PM PDT
Civil Twilight 7:05 AM PDT 7:42 PM PDT
Nautical Twilight 6:33 AM PDT 8:14 PM PDT
Astronomical Twilight 6:00 AM PDT 8:48 PM PDT
Moon 1:57 PM PDT (3/10) 3:55 AM PDT (3/10)
Length of Visible Light 12h 36m
Length of Day
11h 40m
Waxing Gibbous, 71% of the Moon is Illuminated
Mar 10
Waxing Gibbous
Mar 16
Full
Mar 23
Last Quarter
Mar 30
New
Apr 7
First Quarter

Hourly Weather History & Observations

Time (PDT) Temp. Windchill Dew Point Humidity Pressure Visibility Wind Dir Wind Speed Gust Speed Precip Events Conditions
12:07 AM 37.9 °F 30.0 °F 37.9 °F 100% 30.03 in 0.2 mi SSW 12.7 mph 20.7 mph 0.00 in Fog , Rain Light Rain
12:15 AM 37.0 °F 29.3 °F 37.0 °F 100% 30.04 in 0.2 mi SSW 11.5 mph 18.4 mph 0.00 in Fog Fog
12:22 AM 37.0 °F 28.9 °F 37.0 °F 100% 30.04 in 0.2 mi SSW 12.7 mph 21.9 mph 0.00 in Fog Fog
12:56 AM 37.0 °F 29.3 °F 37.0 °F 100% 30.05 in 0.2 mi SSW 11.5 mph 19.6 mph 0.00 in Fog Fog
1:56 AM 37.0 °F 31.0 °F 37.0 °F 100% 30.05 in 0.2 mi WSW 8.1 mph - 0.05 in Fog , Rain Rain
2:02 AM 36.0 °F 29.6 °F 36.0 °F 100% 30.04 in 0.5 mi WSW 8.1 mph - 0.01 in Fog , Rain Light Rain
2:06 AM 36.0 °F 30.3 °F 36.0 °F 100% 30.04 in 1.0 mi Variable 6.9 mph - 0.01 in Rain Light Rain
2:08 AM 36.0 °F 30.3 °F 36.0 °F 100% 30.04 in 2.5 mi Variable 6.9 mph - 0.01 in Rain Light Rain
2:15 AM 36.0 °F 31.1 °F 36.0 °F 100% 30.04 in 7.0 mi WSW 5.8 mph - 0.01 in Rain Light Rain
2:29 AM 36.0 °F 31.1 °F 36.0 °F 100% 30.05 in 4.0 mi Variable 5.8 mph - 0.01 in   Overcast
2:36 AM 37.0 °F 33.3 °F 36.0 °F 96% 30.05 in 1.5 mi West 4.6 mph - 0.01 in   Overcast
2:42 AM 37.0 °F 32.4 °F 37.0 °F 100% 30.05 in 1.0 mi Variable 5.8 mph - 0.01 in   Overcast
2:56 AM 37.0 °F 33.3 °F 36.0 °F 96% 30.06 in 1.2 mi Variable 4.6 mph - 0.01 in   Overcast
3:07 AM 37.0 °F 34.5 °F 37.0 °F 100% 30.05 in 0.8 mi Variable 3.5 mph - N/A   Overcast
3:15 AM 37.0 °F - 37.0 °F 100% 30.05 in 0.8 mi Calm Calm - N/A   Overcast
3:35 AM 37.0 °F 34.5 °F 37.0 °F 100% 30.05 in 0.5 mi Variable 3.5 mph - N/A Fog Fog
3:56 AM 37.0 °F 34.5 °F 37.0 °F 100% 30.05 in 0.5 mi Variable 3.5 mph - N/A Fog Fog
4:39 AM 36.0 °F 33.3 °F 36.0 °F 100% 30.05 in 0.5 mi Variable 3.5 mph - N/A Fog Fog
4:49 AM 37.0 °F - 37.0 °F 100% 30.05 in 0.5 mi Calm Calm - 0.00 in Fog , Rain Light Rain
4:56 AM 37.0 °F - 37.0 °F 100% 30.06 in 0.5 mi Calm Calm - 0.00 in Fog , Rain Light Rain
5:40 AM 36.0 °F 33.3 °F 36.0 °F 100% 30.07 in 0.2 mi Variable 3.5 mph - 0.02 in Fog , Rain Light Rain
5:56 AM 34.0 °F - 33.1 °F 96% 30.09 in 0.5 mi Calm Calm - 0.10 in Fog , Snow Light Snow
6:21 AM 33.1 °F 26.9 °F 33.1 °F 100% 30.07 in 0.8 mi Variable 6.9 mph - 0.03 in Snow Light Snow
6:26 AM 33.1 °F 28.7 °F 33.1 °F 100% 30.08 in 0.8 mi Variable 4.6 mph - 0.03 in   Overcast
6:29 AM 33.1 °F 28.7 °F 33.1 °F 100% 30.08 in 1.0 mi Variable 4.6 mph - 0.03 in   Overcast
6:44 AM 33.1 °F 26.9 °F 33.1 °F 100% 30.09 in 1.2 mi Variable 6.9 mph - 0.03 in   Overcast
6:52 AM 33.8 °F 27.7 °F 33.8 °F 100% 30.09 in 1.0 mi Variable 6.9 mph - 0.04 in Rain Light Rain
6:56 AM 33.1 °F 30.0 °F 33.1 °F 100% 30.12 in 1.0 mi Variable 3.5 mph - 0.04 in Snow Light Snow
7:20 AM 33.1 °F 26.9 °F 33.1 °F 100% 30.10 in 0.8 mi NW 6.9 mph - 0.00 in   Overcast
7:41 AM 33.1 °F 27.7 °F 33.1 °F 100% 30.12 in 0.8 mi Variable 5.8 mph - 0.00 in Snow Light Snow
7:56 AM 33.1 °F 30.0 °F 33.1 °F 100% 30.16 in 0.8 mi NNW 3.5 mph - 0.00 in   Mist
8:30 AM 34.0 °F 29.8 °F 34.0 °F 100% 30.15 in 0.2 mi Variable 4.6 mph - 0.01 in Fog , Snow Light Snow
8:39 AM 34.0 °F 28.8 °F 34.0 °F 100% 30.15 in 0.5 mi Variable 5.8 mph - 0.01 in Fog Fog
8:56 AM 34.0 °F 31.0 °F 34.0 °F 100% 30.19 in 0.5 mi Variable 3.5 mph - 0.01 in Fog Fog
9:04 AM 34.0 °F - 34.0 °F 100% 30.17 in 0.2 mi Calm Calm - N/A Fog Fog
9:11 AM 34.0 °F - 34.0 °F 100% 30.17 in 0.5 mi Calm Calm - N/A Fog Fog
9:42 AM 35.1 °F - 34.0 °F 96% 30.19 in 0.2 mi Calm Calm - N/A Fog Fog
9:56 AM 35.1 °F 32.2 °F 34.0 °F 96% 30.23 in 0.2 mi Variable 3.5 mph - N/A Fog Fog
10:56 AM 35.1 °F - 35.1 °F 100% 30.28 in 0.2 mi Calm Calm - 0.00 in Fog , Rain Light Rain
11:36 AM 36.0 °F 33.3 °F 36.0 °F 100% 30.25 in 0.2 mi Variable 3.5 mph - 0.01 in Fog Fog
11:48 AM 35.1 °F 32.2 °F 35.1 °F 100% 30.25 in 0.8 mi NNW 3.5 mph - 0.01 in   Overcast
11:56 AM 36.0 °F 31.1 °F 36.0 °F 100% 30.30 in 0.8 mi Variable 5.8 mph - 0.01 in   Overcast
12:08 PM 37.0 °F 34.5 °F 37.0 °F 100% 30.26 in 2.0 mi Variable 3.5 mph - N/A   Overcast
12:13 PM 36.0 °F 33.3 °F 36.0 °F 100% 30.26 in 3.0 mi Variable 3.5 mph - N/A   Overcast
12:20 PM 35.1 °F - 34.0 °F 96% 30.26 in 9.0 mi Calm Calm - 0.00 in   Overcast
12:27 PM 36.0 °F - 35.1 °F 97% 30.26 in 2.0 mi Calm Calm - 0.00 in Rain Light Rain
12:30 PM 36.0 °F - 36.0 °F 100% 30.26 in 1.2 mi Calm Calm - 0.00 in Rain Light Rain
12:41 PM 36.0 °F 33.3 °F 35.1 °F 97% 30.26 in 0.2 mi Variable 3.5 mph - 0.01 in Fog , Snow Light Snow
12:48 PM 36.0 °F - 36.0 °F 100% 30.26 in 0.2 mi North - - 0.01 in Fog , Snow Light Snow
12:56 PM 37.0 °F 33.3 °F 37.0 °F 100% 30.32 in 0.2 mi Variable 4.6 mph - 0.01 in Fog Fog
1:10 PM 37.0 °F - 37.0 °F 100% 30.27 in 0.5 mi North - - N/A Fog Fog
1:18 PM 37.0 °F 33.3 °F 37.0 °F 100% 30.28 in 1.5 mi Variable 4.6 mph - N/A   Overcast
1:27 PM 36.0 °F 32.1 °F 36.0 °F 100% 30.27 in 2.0 mi Variable 4.6 mph - N/A   Overcast
1:36 PM 37.9 °F - 37.9 °F 100% 30.27 in 1.2 mi Calm Calm - N/A   Overcast
1:41 PM 37.9 °F 35.5 °F 37.0 °F 97% 30.27 in 1.5 mi Variable 3.5 mph - N/A   Overcast
1:52 PM 37.4 °F - 37.4 °F 100% 30.27 in 4.0 mi North - - N/A   Mostly Cloudy
1:56 PM 37.9 °F 35.5 °F 37.0 °F 97% 30.31 in 10.0 mi Variable 3.5 mph - N/A   Mostly Cloudy
2:02 PM 37.9 °F - 37.0 °F 97% 30.27 in 10.0 mi Calm Calm - N/A   Mostly Cloudy
2:10 PM 39.0 °F 36.8 °F 37.9 °F 96% 30.27 in 4.0 mi Variable 3.5 mph - N/A   Mostly Cloudy
2:17 PM 39.0 °F 35.7 °F 37.0 °F 93% 30.27 in 5.0 mi Variable 4.6 mph - N/A   Mostly Cloudy
2:47 PM 39.0 °F 36.8 °F 36.0 °F 89% 30.28 in 10.0 mi Variable 3.5 mph - N/A   Mostly Cloudy
2:56 PM 37.0 °F 34.5 °F 35.1 °F 93% 30.32 in 10.0 mi Variable 3.5 mph - N/A   Scattered Clouds
3:56 PM 41.0 °F 38.0 °F 36.0 °F 82% 30.32 in 10.0 mi Variable 4.6 mph - N/A   Mostly Cloudy
4:27 PM 37.9 °F 35.5 °F 33.1 °F 83% 30.30 in 10.0 mi Variable 3.5 mph - N/A   Overcast
4:49 PM 39.0 °F - 35.1 °F 86% 30.30 in 10.0 mi Calm Calm - N/A   Overcast
4:56 PM 39.0 °F 36.8 °F 34.0 °F 82% 30.35 in 10.0 mi Variable 3.5 mph - N/A   Overcast
5:56 PM 37.9 °F 35.5 °F 32.0 °F 79% 30.37 in 10.0 mi Variable 3.5 mph - N/A   Mostly Cloudy
6:56 PM 34.0 °F 31.0 °F 30.0 °F 85% 30.39 in 10.0 mi Variable 3.5 mph - N/A   Clear
7:56 PM 32.0 °F - 28.9 °F 88% 30.41 in 10.0 mi Calm Calm - N/A   Clear
8:56 PM 30.9 °F 26.2 °F 30.0 °F 96% 30.43 in 10.0 mi NNW 4.6 mph - N/A   Clear
9:43 PM 30.9 °F 26.2 °F 30.0 °F 96% 30.36 in 10.0 mi Variable 4.6 mph - N/A   Partly Cloudy
9:56 PM 30.9 °F 25.2 °F 30.0 °F 96% 30.44 in 10.0 mi Variable 5.8 mph - N/A   Partly Cloudy
10:33 PM 30.9 °F 25.2 °F 30.9 °F 100% 30.38 in 7.0 mi North 5.8 mph - N/A   Mostly Cloudy
10:56 PM 32.0 °F 25.6 °F 30.9 °F 96% 30.45 in 10.0 mi North 6.9 mph - N/A   Overcast
11:56 PM 32.0 °F 24.2 °F 30.0 °F 92% 30.46 in 10.0 mi NNE 9.2 mph - N/A   Mostly Cloudy